Location: Caltech
(34.1382°N, 118.1253°W)
Time: 12:33:45
(UTC-07:00)

Iridium 3 - Visible Passes

Search period start: 26 April 2017 00:00
Search period end: 06 May 2017 00:00
Orbit: 776 x 779 km, 86.4° (Epoch: 25 April)

Date Brightness Start Highest point End Pass type
(mag) Time Alt. Az. Time Alt. Az. Time Alt. Az.
26 Apr 6.3 04:45:31 10° SSE 04:50:33 53° E 04:55:37 10° NNE visible
27 Apr 7.5 04:12:53 10° SE 04:17:12 27° E 04:21:33 10° NNE visible
28 Apr 8.3 03:41:20 10° ESE 03:43:58 14° E 03:46:38 10° NE visible
28 Apr 5.7 05:19:05 10° SSW 05:24:08 52° W 05:29:15 10° N visible
29 Apr 5.6 04:45:25 10° S 04:50:37 80° E 04:55:51 10° N visible
30 Apr 6.8 04:12:22 10° SSE 04:17:12 40° E 04:22:03 10° NNE visible
01 May 7.8 03:40:03 10° SE 03:43:54 21° E 03:47:44 10° NE visible
01 May 6.2 05:19:35 10° SSW 05:24:19 35° W 05:29:05 10° NNW visible
02 May 8.4 03:09:45 10° E 03:10:43 10° ENE 03:11:41 10° ENE visible
02 May 5.5 04:45:32 10° S 04:50:43 69° W 04:55:55 10° N visible
03 May 6.0 04:12:26 12° SSE 04:17:14 61° E 04:22:22 10° N visible
04 May 7.2 03:39:28 11° SE 03:43:52 31° E 03:48:24 10° NNE visible
04 May 6.7 05:20:23 10° SW 05:24:32 24° W 05:28:42 10° NNW visible
05 May 8.1 03:07:28 10° ESE 03:10:37 16° E 03:13:45 10° NE visible
05 May 5.8 04:46:58 16° SSW 04:50:51 45° W 04:55:52 10° NNW visible
